EN

Hourly Weather Georgetown

Today, 18 January, Monday

Time Temperature Precipitation Wind Pressure Humidity
00:00 +23°C° 0 mm 6 mps 735 mmHg 33%
01:00 +23°C° 0 mm 7 mps 735 mmHg 32%
02:00 +23°C° 0 mm 7 mps 734 mmHg 33%
03:00 +22°C° 0 mm 7 mps 734 mmHg 33%
04:00 +22°C° 0 mm 7 mps 734 mmHg 34%
05:00 +22°C° 0 mm 7 mps 734 mmHg 34%
06:00 +21°C° 0 mm 8 mps 735 mmHg 33%
07:00 +21°C° 0 mm 8 mps 735 mmHg 33%
08:00 +22°C° 0 mm 8 mps 735 mmHg 32%
09:00 +24°C° 0 mm 8 mps 736 mmHg 31%
10:00 +26°C° 0 mm 8 mps 736 mmHg 30%
11:00 +27°C° 0 mm 7 mps 736 mmHg 30%
12:00 +29°C° 0 mm 5 mps 735 mmHg 29%
13:00 +30°C° 0 mm 4 mps 735 mmHg 28%
14:00 +30°C° 0 mm 3 mps 734 mmHg 29%
15:00 +30°C° 0 mm 2 mps 734 mmHg 29%
16:00 +31°C° 0 mm 1 mps 733 mmHg 30%
17:00 +29°C° 0 mm 3 mps 733 mmHg 29%
18:00 +28°C° 0 mm 4 mps 734 mmHg 28%
19:00 +27°C° 0 mm 6 mps 734 mmHg 26%
20:00 +26°C° 0 mm 7 mps 735 mmHg 28%
21:00 +24°C° 0 mm 8 mps 735 mmHg 29%
22:00 +23°C° 0 mm 8 mps 736 mmHg 30%
23:00 +22°C° 0 mm 9 mps 736 mmHg 31%

Tomorrow, 19 January, Tuesday

Time Temperature Precipitation Wind Pressure Humidity
00:00 +21°C° 0 mm 9 mps 735 mmHg 32%
01:00 +21°C° 0 mm 9 mps 735 mmHg 32%
02:00 +19°C° 0 mm 9 mps 735 mmHg 33%
03:00 +19°C° 0 mm 9 mps 735 mmHg 34%
04:00 +18°C° 0 mm 9 mps 735 mmHg 35%
05:00 +18°C° 0 mm 9 mps 735 mmHg 36%
06:00 +17°C° 0 mm 9 mps 735 mmHg 38%
07:00 +17°C° 0 mm 9 mps 736 mmHg 39%
08:00 +19°C° 0 mm 9 mps 736 mmHg 36%
09:00 +22°C° 0 mm 9 mps 737 mmHg 34%
10:00 +24°C° 0 mm 9 mps 737 mmHg 31%
11:00 +26°C° 0 mm 8 mps 737 mmHg 30%
12:00 +28°C° 0 mm 6 mps 736 mmHg 30%
13:00 +29°C° 0 mm 5 mps 736 mmHg 29%
14:00 +30°C° 0 mm 4 mps 735 mmHg 29%
15:00 +30°C° 0 mm 4 mps 735 mmHg 28%
16:00 +30°C° 0 mm 4 mps 734 mmHg 27%
17:00 +29°C° 0 mm 5 mps 734 mmHg 29%
18:00 +27°C° 0 mm 6 mps 735 mmHg 30%
19:00 +26°C° 0 mm 7 mps 735 mmHg 31%
20:00 +24°C° 0 mm 7 mps 735 mmHg 32%
21:00 +23°C° 0 mm 8 mps 736 mmHg 32%
22:00 +22°C° 0 mm 9 mps 736 mmHg 32%
23:00 +22°C° 0 mm 9 mps 736 mmHg 32%

Day after tomorrow, 20 January, Wednesday

Time Temperature Precipitation Wind Pressure Humidity
00:00 +21°C° 0 mm 10 mps 736 mmHg 32%
01:00 +21°C° 0 mm 11 mps 736 mmHg 32%
02:00 +19°C° 0 mm 11 mps 735 mmHg 33%
03:00 +19°C° 0 mm 11 mps 735 mmHg 34%
04:00 +18°C° 0 mm 11 mps 735 mmHg 35%
05:00 +18°C° 0 mm 11 mps 736 mmHg 36%
06:00 +18°C° 0 mm 11 mps 736 mmHg 36%
07:00 +17°C° 0 mm 11 mps 737 mmHg 37%
08:00 +19°C° 0 mm 11 mps 737 mmHg 35%
09:00 +22°C° 0 mm 12 mps 737 mmHg 32%
10:00 +24°C° 0 mm 12 mps 737 mmHg 29%
11:00 +26°C° 0 mm 10 mps 737 mmHg 29%
12:00 +27°C° 0 mm 9 mps 736 mmHg 28%
13:00 +28°C° 0 mm 7 mps 736 mmHg 27%
14:00 +28°C° 0 mm 7 mps 735 mmHg 27%
15:00 +29°C° 0 mm 6 mps 735 mmHg 28%
16:00 +29°C° 0 mm 6 mps 734 mmHg 28%
17:00 +27°C° 0 mm 7 mps 735 mmHg 28%
18:00 +26°C° 0 mm 7 mps 735 mmHg 29%
19:00 +23°C° 0 mm 8 mps 736 mmHg 29%
20:00 +23°C° 0 mm 9 mps 736 mmHg 30%
21:00 +22°C° 0 mm 10 mps 736 mmHg 30%
22:00 +21°C° 0 mm 10 mps 737 mmHg 30%
23:00 +21°C° 0 mm 11 mps 737 mmHg 30%

21 January, Thursday

Time Temperature Precipitation Wind Pressure Humidity
00:00 +19°C° 0 mm 11 mps 736 mmHg 31%
01:00 +18°C° 0 mm 11 mps 736 mmHg 32%
02:00 +18°C° 0 mm 11 mps 736 mmHg 32%
03:00 +17°C° 0 mm 11 mps 736 mmHg 33%
04:00 +17°C° 0 mm 11 mps 736 mmHg 34%
05:00 +17°C° 0 mm 11 mps 736 mmHg 34%
06:00 +17°C° 0 mm 12 mps 737 mmHg 35%
07:00 +17°C° 0 mm 12 mps 737 mmHg 36%
08:00 +18°C° 0 mm 11 mps 737 mmHg 34%
09:00 +21°C° 0 mm 11 mps 737 mmHg 32%
10:00 +22°C° 0 mm 11 mps 738 mmHg 29%
11:00 +24°C° 0 mm 10 mps 737 mmHg 29%
12:00 +26°C° 0 mm 9 mps 737 mmHg 28%
13:00 +27°C° 0 mm 7 mps 736 mmHg 28%
14:00 +28°C° 0 mm 6 mps 735 mmHg 28%
15:00 +28°C° 0 mm 5 mps 735 mmHg 29%
16:00 +28°C° 0 mm 4 mps 734 mmHg 29%
17:00 +27°C° 0 mm 5 mps 735 mmHg 30%
18:00 +26°C° 0 mm 6 mps 735 mmHg 31%
19:00 +23°C° 0 mm 6 mps 736 mmHg 32%
20:00 +22°C° 0 mm 7 mps 736 mmHg 32%
21:00 +21°C° 0 mm 8 mps 736 mmHg 32%
22:00 +21°C° 0 mm 9 mps 737 mmHg 32%
23:00 +19°C° 0 mm 9 mps 737 mmHg 33%

22 January, Friday

Time Temperature Precipitation Wind Pressure Humidity
00:00 +18°C° 0 mm 9 mps 736 mmHg 34%
01:00 +18°C° 0 mm 10 mps 736 mmHg 35%
02:00 +17°C° 0 mm 9 mps 736 mmHg 36%
03:00 +17°C° 0 mm 9 mps 736 mmHg 36%
04:00 +16°C° 0 mm 9 mps 735 mmHg 37%
05:00 +16°C° 0 mm 9 mps 736 mmHg 37%
06:00 +16°C° 0 mm 9 mps 736 mmHg 37%
07:00 +16°C° 0 mm 9 mps 736 mmHg 37%
08:00 +18°C° 0 mm 8 mps 737 mmHg 34%
09:00 +21°C° 0 mm 8 mps 737 mmHg 30%
10:00 +23°C° 0 mm 8 mps 737 mmHg 26%
11:00 +24°C° 0 mm 6 mps 737 mmHg 27%
12:00 +27°C° 0 mm 5 mps 736 mmHg 27%
13:00 +28°C° 0 mm 4 mps 735 mmHg 27%
14:00 +28°C° 0 mm 3 mps 735 mmHg 28%
15:00 +29°C° 0 mm 2 mps 734 mmHg 29%
16:00 +29°C° 0 mm 1 mps 734 mmHg 30%
17:00 +28°C° 0 mm 2 mps 734 mmHg 31%
18:00 +26°C° 0 mm 3 mps 734 mmHg 32%
19:00 +25°C° 0 mm 4 mps 734 mmHg 33%
20:00 +23°C° 0 mm 5 mps 735 mmHg 31%
21:00 +22°C° 0 mm 7 mps 735 mmHg 29%
22:00 +21°C° 0 mm 8 mps 736 mmHg 27%
23:00 +21°C° 0 mm 8 mps 736 mmHg 27%

23 January, Saturday

Time Temperature Precipitation Wind Pressure Humidity
00:00 +20°C° 0 mm 8 mps 735 mmHg 27%
01:00 +18°C° 0 mm 8 mps 735 mmHg 28%
02:00 +18°C° 0 mm 8 mps 735 mmHg 28%
03:00 +17°C° 0 mm 8 mps 735 mmHg 29%
04:00 +17°C° 0 mm 8 mps 735 mmHg 29%
05:00 +17°C° 0 mm 8 mps 735 mmHg 29%
06:00 +17°C° 0 mm 8 mps 735 mmHg 29%
07:00 +16°C° 0 mm 7 mps 736 mmHg 29%
08:00 +20°C° 0 mm 7 mps 736 mmHg 26%
09:00 +22°C° 0 mm 7 mps 736 mmHg 23%
10:00 +24°C° 0 mm 6 mps 736 mmHg 20%
11:00 +26°C° 0 mm 5 mps 735 mmHg 22%
12:00 +28°C° 0 mm 3 mps 735 mmHg 24%
13:00 +29°C° 0 mm 2 mps 734 mmHg 25%
14:00 +29°C° 0 mm 2 mps 734 mmHg 27%
15:00 +29°C° 0 mm 3 mps 733 mmHg 28%
16:00 +29°C° 0 mm 3 mps 733 mmHg 30%
17:00 +28°C° 0 mm 3 mps 733 mmHg 29%
18:00 +27°C° 0 mm 4 mps 733 mmHg 28%
19:00 +26°C° 0 mm 4 mps 734 mmHg 27%
20:00 +25°C° 0 mm 5 mps 734 mmHg 27%
21:00 +23°C° 0 mm 6 mps 734 mmHg 26%
22:00 +22°C° 0 mm 7 mps 735 mmHg 25%
23:00 +21°C° 0 mm 7 mps 735 mmHg 25%
Show more

We Need Your Consent

Meteoprog and our Service Providers may store and access personal data such as cookies, device identifiers or other similar technologies on your device and process such data to personalise content and ads, as well as provide social media features and to analyse the traffic.

  • Store and/or access information on your device

    Cookies, device identifiers or other information can be stored or accessed on your device for the purposes indicated above.

  • Personalised ads and content, ad and content measurement, audience insights, and products development

    Ads and content can be personalised based on a profile. More data can be added to better personalise ads and content. Ad and content performance can be measured. Insights about the audience who saw the ads and content can be derived. Such data can be used to develop or improve user’s experience, systems and software.

By clicking ‘I Agree’ you will allow the use of indicated cookies, device identifiers, web beacons or other similar technologies. Your settings can be changed in the browser on your device.

For certain purposes, legitimate interests may be relied on, rather than consent. You can read more about this in our Privacy and Cookie Policy.